Location: Morrison Observatory
(41.7012°N, 86.2315°W)
Time: 17:27:03
(UTC-04:00)

Daily predictions for brighter satellites

Satellite Brightness Start Highest point End
(mag) Time Altitude Azimuth Time Altitude Azimuth Time Altitude Azimuth
Cosmos 2227 Rocket 3.9 21:02:28 10° NW 21:07:34 35° WSW 21:12:38 10° SSW
Envisat 3.4 21:04:36 10° SE 21:09:26 47° ENE 21:14:18 10° N
Resurs 1-3 3.7 21:05:17 10° SSE 21:09:37 63° ENE 21:13:58 10° N
Cosmos 1908 Rocket 4.4 21:06:54 10° SSW 21:11:13 56° W 21:15:30 10° N
Cosmos 1980 Rocket 2.2 21:09:30 10° SSW 21:15:04 69° ESE 21:20:39 10° NNE
Atlas Centaur 2 3.7 21:08:34 10° SW 21:15:34 32° S 21:21:37 10° ESE
Cosmos 2056 Rocket 3.7 21:10:27 10° SSW 21:15:35 77° WNW 21:20:49 10° NNE
Cosmos 1092 Rocket 4.3 21:09:30 10° SSW 21:15:37 73° W 21:21:49 10° N
ATLAS 3B R/B 4.5 21:11:13 10° NNW 21:15:45 18° NNE 21:20:10 10° ENE
CZ-2D R/B 3.3 21:12:55 10° SSE 21:16:48 85° WSW 21:20:41 10° NNW
Cosmos 1633 2.5 21:20:26 10° S 21:23:59 64° E 21:27:36 10° NNE
YAOGAN 6 3.7 21:21:00 10° SE 21:23:59 26° ENE 21:27:00 10° NNE
Cosmos 44 3.4 21:21:36 10° NNW 21:25:56 53° NE 21:30:10 11° SE
S3M 4.3 21:21:56 10° N 21:27:58 49° ENE 21:34:04 10° SSE
Cosmos 1697 Rocket 3.7 21:26:04 10° SW 21:31:32 52° WNW 21:37:03 10° NNE
Cosmos 1553 Rocket 4.1 21:25:41 10° N 21:31:46 56° E 21:37:43 10° SSE
Resurs 01 Rocket 2.2 21:31:20 10° S 21:35:43 61° WSW 21:40:10 10° NNW
Meteor 2-11 Rocket 4.4 21:32:22 10° N 21:38:29 78° E 21:44:33 10° SSE
Cosmos 1452 Rocket 3.5 21:34:20 10° S 21:39:34 71° ESE 21:44:51 10° NNE
Cosmos 839 Rocket 3.9 21:35:09 10° SSW 21:41:25 71° ESE 21:47:38 10° NE
GPS 2-05 Rocket1 4.0 21:40:25 10° SW 21:43:13 25° S 21:44:35 19° SE
Okean 1 Rocket 4.3 21:41:27 16° SE 21:43:35 22° E 21:46:57 10° NE
Cosmos 2227 4.2 21:38:09 10° NNW 21:43:50 81° ENE 21:49:17 11° SSE
Cosmos 1420 Rocket 4.1 21:39:50 10° S 21:44:51 54° ESE 21:49:54 10° NNE
Meteor 1-11 Rocket 4.0 21:39:16 10° SSE 21:44:57 52° E 21:50:31 10° NNE
ATLAS 2AS CENTAUR R/B 3.6 21:39:52 10° SSE 21:46:19 31° ESE 21:53:07 10° NE
Cosmos 407 Rocket 4.3 21:42:04 10° NNW 21:47:16 53° WSW 21:52:24 10° S
CZ-4B DEB 3.6 21:48:27 22° ESE 21:49:22 27° ENE 21:51:52 10° NNE
CZ-4B DEB 4.4 21:47:42 10° SSE 21:51:09 86° ENE 21:54:40 10° N
Cosmos 1300 Rocket 4.0 21:48:19 10° SSE 21:52:18 40° E 21:56:21 10° NNE
Abrixas rocket 3.9 21:49:39 10° W 21:52:39 32° NNW 21:55:40 10° NE
NOSS 3-1 (A) 4.0 21:47:14 10° SW 21:52:57 62° NW 21:59:26 10° NNE
Tiangong 1 0.9 21:50:18 10° W 21:53:03 66° N 21:54:37 22° ENE
Cosmos 921 Rocket 4.0 21:49:30 10° SW 21:53:32 47° WNW 21:57:36 10° N
Cosmos 2151 Rocket 3.5 21:49:57 10° S 21:54:19 79° E 21:58:44 10° N
CZ-4C R/B 4.2 21:48:50 10° NW 21:55:27 36° WSW 22:02:34 10° S
Cosmos 1602 3.7 21:53:02 10° S 21:56:53 83° W 22:00:44 10° N
NOSS 2-3 (E) 4.3 21:52:49 10° S 21:57:05 37° ESE 22:01:54 10° NE
SJ-11-01 4.3 21:56:45 10° S 22:01:25 80° WSW 22:06:07 10° NNW
Cosmos 1939 Rocket 3.1 21:58:41 10° S 22:02:40 67° W 22:06:37 10° NNW
DELTA 2 R/B (1) 3.9 21:58:00 10° W 22:03:27 53° SSW 22:06:45 23° SE
Cosmos 1025 Rocket 4.1 22:01:12 10° NNE 22:04:48 26° ENE 22:05:50 23° E
Helios 1B rocket 2.3 22:04:15 10° NNE 22:08:21 68° ESE 22:12:25 10° S
MetOp-A 4.5 22:06:52 23° SE 22:09:56 47° ENE 22:15:03 10° N
USA 186 4.4 22:07:36 10° SSW 22:10:13 21° W 22:12:53 10° NW
Cosmos 1536 2.7 22:11:13 15° S 22:14:33 71° E 22:18:37 10° NNE
Meteor 1-23 Rocket 4.3 22:09:55 10° N 22:15:25 57° ENE 22:18:31 25° SSE
Cosmos 44 Rocket 3.9 22:10:54 10° NW 22:15:29 50° WSW 22:18:48 18° S
GENESIS II 4.1 22:12:07 10° NNW 22:16:04 74° ENE 22:17:29 37° SE
SAR-Lupe-4 3.6 22:17:08 39° SE 22:18:14 60° ENE 22:21:48 10° N
Lacrosse 5 rocket 1.6 22:15:07 10° NW 22:18:44 51° SW 22:20:14 31° S
SeaSat 1 3.8 22:14:37 10° NNE 22:19:15 42° WNW 22:23:52 10° SW
Cosmos 1536 Rocket 3.9 22:18:04 10° NNW 22:22:21 62° W 22:25:43 16° S
Cosmos 2322 Rocket 2.1 22:16:44 10° SSW 22:22:27 85° ESE 22:28:11 10° NNE
Cosmos 1140 Rocket 4.2 22:20:10 10° NNW 22:25:14 52° WSW 22:29:22 15° S
Cosmos 2263 Rocket 2.2 22:19:40 10° NNW 22:25:22 66° ENE 22:28:02 32° SE
ARGOS 3.4 22:23:09 30° SE 22:25:33 53° ENE 22:30:45 10° N
BREEZE-M DEB (TANK) 3.2 22:25:35 10° WSW 22:28:48 78° NNW 22:39:07 10° ENE
NOSS 2-3 (C) 3.7 22:25:56 10° SSW 22:30:33 73° ESE 22:35:58 10° NE
SL-16 R/B 2.2 22:26:02 10° SSW 22:31:42 82° WNW 22:37:25 10° NNE
Meteor 1-29 3.1 22:29:03 10° N 22:32:29 72° WNW 22:34:11 27° SSW
H-2A R/B 2.6 22:31:59 33° ESE 22:33:20 40° ENE 22:38:00 10° N
Cosmos 1844 Rocket 4.3 22:29:41 10° N 22:33:47 20° NE 22:35:38 17° ENE
SAR-Lupe-1 3.9 22:34:46 60° SSE 22:35:21 84° ENE 22:38:56 10° NNW
Cosmos 1515 4.4 22:34:42 10° N 22:38:01 38° ENE 22:38:01 38° ENE
SPOT 5 3.1 22:37:07 41° ESE 22:38:27 53° ENE 22:43:05 10° N
Cosmos 2322 4.1 22:38:31 37° ESE 22:38:56 37° ESE 22:44:07 10° NE
Cosmos 1741 Rocket 4.1 22:35:21 10° NNW 22:40:35 73° WSW 22:43:02 32° S
Helios 1A 4.2 22:38:36 17° SSW 22:41:30 39° W 22:45:30 10° NNW
USA 238 DEB 4.5 22:35:54 10° NNW 22:42:34 42° NE 22:45:49 27° E
USA 238 4.5 22:36:00 10° NNW 22:42:40 41° NE 22:45:55 27° E
COSMOS 2428 4.2 22:47:38 19° ENE 22:47:38 19° ENE 22:50:06 10° NE
Lacrosse 5 1.9 22:41:25 10° SSW 22:46:19 51° SE 22:51:14 10° NE
EXPRESS MD2 4.3 22:43:48 10° W 22:46:48 48° NNW 22:52:25 10° ENE
ERS-1 Rocket 3.2 22:46:08 31° S 22:48:31 69° WSW 22:53:32 10° NNW
Okean 2 3.2 22:47:52 10° N 22:51:58 73° E 22:52:05 73° E
Meteor 1-5 Rocket 4.3 22:50:03 13° SSW 22:54:46 67° W 23:00:03 10° N
Cosmos 1500 4.2 22:56:16 37° NE 22:56:16 37° NE 22:58:55 10° NNE
Cosmos 1244 Rocket 4.4 22:54:42 40° SSE 22:56:54 66° E 23:02:59 10° NNE
Cosmos 2360 Rocket 2.1 22:55:38 37° S 22:57:48 67° ESE 23:03:24 10° NNE
MetOp-B 4.5 23:01:40 34° SSW 23:03:51 61° WSW 23:09:10 10° NNW
Atlas Centaur 2 3.5 22:58:00 10° WSW 23:04:18 30° S 23:04:26 30° S
Cosmos 1455 Rocket 4.4 23:08:11 29° NE 23:08:11 29° NE 23:10:50 10° NNE
ATLAS 3B R/B 2.7 23:01:13 10° NNW 23:07:55 62° NE 23:09:41 46° ESE
DMSP B5D2-2 4.2 23:07:00 10° NNE 23:11:56 56° E 23:11:56 56° E
Cosmos 1110 Rocket 4.0 23:15:27 41° SSW 23:17:18 76° WNW 23:22:30 10° NNE
Cosmos 2315 Rocket 4.4 23:11:37 10° NNW 23:17:45 60° W 23:20:28 33° SSW
YAOGAN 11 4.2 23:18:41 67° WSW 23:18:43 67° WSW 23:23:03 10° NNW
Okean 1-7 Rocket 4.3 23:15:22 10° NNW 23:19:41 49° W 23:20:18 45° WSW
SL-08 R/B 4.4 23:20:23 60° SE 23:21:16 67° E 23:27:33 10° NNE
Landsat 7 3.8 23:25:25 76° NNE 23:25:25 76° NNE 23:29:56 10° N
Meteor 1-12 Rocket 4.0 23:28:22 75° ESE 23:28:31 76° E 23:34:09 10° NNE
Cosmos 1975 3.9 23:29:56 39° N 23:29:56 39° N 23:32:32 10° N
Cosmos 1066 Rocket 4.0 23:27:27 10° N 23:32:52 89° E 23:32:59 86° SSE
Cosmos 1607 4.4 23:27:45 10° NW 23:34:00 53° WSW 23:35:13 47° SSW
Cosmos 1331 Rocket 4.4 23:32:50 43° SW 23:34:19 60° WNW 23:39:31 10° NNE
SPOT 1/Viking Rocket 3.8 23:33:49 57° SW 23:34:19 60° WSW 23:39:31 10° NNW
ATLAS 2AS CENTAUR R/B 3.4 23:29:08 10° SW 23:36:49 65° NW 23:44:56 10° NNE
CARTOSAT-1 4.3 23:39:29 48° N 23:39:29 48° N 23:42:41 10° N
Terra 2.1 23:41:15 62° N 23:41:15 62° N 23:45:15 10° N
Cosmos 1745 Rocket 3.8 23:50:34 84° SSW 23:50:49 89° WNW 23:56:59 10° N
H-2A R/B 3.4 23:53:26 34° NNE 23:53:26 34° NNE 23:56:04 10° N
